This is the latest recevied weather packets stored in our database for station/object K5SVV. If no packets are shown the sender has not sent any weather packets the latest 10 day(s).
| Time | Temp. | Humidity | Pressure | Rain* | Wind** | Luminosity | Snow |
|---|---|---|---|---|---|---|---|
| 1777685475 | 13.33° C | 83% | 1016.6 hPa | 0 mm | - | 0 W/m² | - |
| 1777685173 | 13.33° C | 83% | 1016.1 hPa | 0 mm | - | 0 W/m² | - |
| 1777684871 | 13.33° C | 83% | 1016.4 hPa | 0 mm | - | 0 W/m² | - |
| 1777684568 | 13.89° C | 83% | 1016.2 hPa | 0 mm | - | 0 W/m² | - |
| 1777684263 | 13.89° C | 82% | 1016 hPa | 0 mm | - | 0 W/m² | - |
| 1777683961 | 13.89° C | 81% | 1016 hPa | 0 mm | - | 1 W/m² | - |
| 1777683657 | 13.89° C | 81% | 1016.1 hPa | 0 mm | - | 3 W/m² | - |
| 1777683355 | 13.89° C | 80% | 1015.8 hPa | 0 mm | - | 6 W/m² | - |
| 1777683052 | 13.89° C | 80% | 1015.9 hPa | 0 mm | - | 11 W/m² | - |
| 1777682743 | 13.89° C | 80% | 1015.5 hPa | 0 mm | - | 11 W/m² | - |
| 1777682439 | 13.89° C | 79% | 1015.4 hPa | 0 mm | - | 12 W/m² | - |
| 1777682138 | 13.89° C | 79% | 1015.5 hPa | 0 mm | - | 13 W/m² | - |
| 1777681834 | 14.44° C | 79% | 1015.3 hPa | 0 mm | - | 18 W/m² | - |
| 1777681531 | 14.44° C | 78% | 1015.4 hPa | 0 mm | - | 23 W/m² | - |
| 1777681228 | 14.44° C | 77% | 1015.2 hPa | 0 mm | - | 37 W/m² | - |
| 1777680926 | 14.44° C | 77% | 1015.1 hPa | 0 mm | - | 46 W/m² | - |
| 1777680623 | 15° C | 76% | 1015 hPa | 0 mm | - | 53 W/m² | - |
| 1777680321 | 15° C | 76% | 1014.9 hPa | 0 mm | - | 62 W/m² | - |
| 1777680018 | 15° C | 76% | 1015.1 hPa | 0 mm | - | 84 W/m² | - |
| 1777679713 | 14.44° C | 76% | 1015 hPa | 0 mm | - | 96 W/m² | - |
| 1777679409 | 14.44° C | 76% | 1014.9 hPa | 0 mm | - | 82 W/m² | - |
| 1777679105 | 15° C | 75% | 1014.9 hPa | 0 mm | - | 42 W/m² | - |
| 1777678803 | 15° C | 75% | 1015 hPa | 0 mm | - | 35 W/m² | - |
| 1777678501 | 15° C | 75% | 1015 hPa | 0 mm | - | 47 W/m² | - |
| 1777678197 | 15° C | 74% | 1014.9 hPa | 0 mm | - | 65 W/m² | - |
* Rain latest hour (hover to see other rain measurements)
** Current wind speed in m/s (hover to see current wind gust speed)